Location: *
(37.5724°S, 58.0067°E)
Time: 11:45:34
(UTC+00:00)

Lacrosse 5 - Pass Details

Date: 22 January 2021
Orbit: 715 x 724 km, 57.0° (Epoch: 22 February)

Event Time Altitude Azimuth Distance (km) Brightness Sun altitude
Exits shadow 19:49:07 41° 192° (SSW) 1,062 3.1 -32.5°
Drops below altitude 10° 19:53:09 10° 149° (SSE) 2,242 5.0 -32.6°
Sets 19:55:39 0° 142° (SE) 3,169 5.8 -32.7°
